www.pogodaiklimat.ru
ПОГОДА в Клайнс Корнерс
Время
и дата
11:53 17.06
12:53 17.06
13:53 17.06
14:53 17.06
15:53 17.06
16:53 17.06
17:53 17.06
18:53 17.06
19:53 17.06
20:53 17.06
21:53 17.06
22:53 17.06
23:53 17.06
00:53 18.06
01:53 18.06
02:53 18.06
03:53 18.06
04:53 18.06
05:53 18.06
06:53 18.06
07:53 18.06
08:53 18.06
09:53 18.06
10:53 18.06
11:53 18.06
12:53 18.06
13:53 18.06
14:53 18.06
15:53 18.06
16:53 18.06
17:53 18.06
18:53 18.06
19:53 18.06
20:53 18.06
21:53 18.06
22:53 18.06
23:53 18.06
00:53 19.06
01:53 19.06
02:02 19.06
02:53 19.06
03:53 19.06
04:53 19.06
05:53 19.06
06:53 19.06
07:53 19.06
08:53 19.06
09:53 19.06
Ветер
(напр.,м/с)
Видим. Явления Облачность Т
(С)
Тd
(С)
f
(%)
Тe
(С)
Тes
(С)
Комфортность P
(гПа)
Po
(гПа)
Тmin
(С)
Tmax
(С)
R
(мм)
R24
(мм)
S
(см)
ЮЗ 9
{16}
16 км ясно +27.8 -2.8 13 +25 +27 комфорт 1003.1 780.6
З 11
{16}
16 км ясно +28.9 -3.3 12 +26 +26 жарко 1002.2 779.8
ЮЗ 6
{16}
16 км ясно +28.9 -3.3 12 +26 +34 жарко 1002.1 779.3
З 12
{16}
16 км ясно +29.4 -3.3 12 +26 +26 жарко 1001.1 778.8
ЮЗ 8
{13}
16 км ясно +28.9 -4.4 11 +26 +28 жарко 1000.8 778.3
З 6
{13}
16 км ясно +28.9 -4.4 11 +26 +29 жарко 1000.6 778.0 +26.7 +30.0
ЮЗ 5
{8}
16 км ясно +27.8 -3.9 12 +25 +27 комфорт 1000.4 778.0
ЮЗ 5 16 км ясно +24.4 -2.2 17 +23 +23 комфорт 1000.2 778.0
Ю 6 16 км ясно +21.1 -3.3 19 +20 +20 1000.5 778.0
Ю 7 16 км ясно +20.0 -4.4 19 +19 +19 1001.1 778.5
ЮЗ 8 16 км ясно +19.4 -3.9 20 +19 +19 1001.3 778.8
ЮЗ 7 16 км ясно +18.9 -3.9 21 +18 +18 1001.8 779.3 +18.9 +28.9
З 7 16 км ясно +17.2 -3.9 23 +16 +16 1002.1 779.3
З 7 16 км ясно +15.6 -3.9 26 +14 +14 1002.3 779.6
З 7 16 км ясно +15.0 -3.9 27 +13 +13 1002.1 779.3
З 7 16 км ясно +13.9 -3.3 30 +12 +12 1002.7 779.6
З 6 16 км ясно +12.8 -3.3 32 +11 +11 1003.2 779.8
З 5 16 км ясно +11.1 -2.8 38 +9 +9 1004.5 780.3 +11.1 +18.9
З 4 16 км ясно +14.4 0.0 37 +13 +13 1004.6 780.9
З 5 16 км ясно +18.9 -1.1 26 +19 +19 1004.8 781.1
З 6
{10}
16 км ясно +21.1 -0.6 23 +21 +22 комфорт 1005.3 781.4
З 8
{11}
16 км ясно +23.3 -0.6 20 +22 +23 комфорт 1005.1 781.4
З 8
{14}
16 км ясно +25.0 0.0 19 +23 +26 комфорт 1005.3 781.6
З 10
{16}
16 км ясно +25.6 -0.6 18 +24 +25 комфорт 1005.1 781.6 +11.7 +25.6
З 11
{16}
16 км ясно +26.1 -1.1 17 +24 +24 комфорт 1005.7 781.9
З 8
{15}
16 км ясно +27.2 -1.7 15 +25 +29 комфорт 1005.8 781.9
З 9
{14}
16 км ясно +27.8 -1.7 14 +25 +27 комфорт 1005.7 781.9
ЮЗ 5
{10}
16 км ясно +28.3 -1.7 14 +26 +35 жарко 1005.6 781.6
З 8 16 км ясно +28.9 -1.7 14 +26 +29 жарко 1005.3 781.4
16 км ясно +28.3 -1.1 15 +26 +37 жарко 1005.5 781.1 +25.6 +28.9
ЮЗ 5 16 км ясно +27.8 -0.6 16 +25 +28 комфорт 1005.1 781.4
ЮЗ 4 16 км ясно +24.4 -0.6 19 +23 +24 комфорт 1005.5 781.6
С 2 16 км ясно +22.8 -1.1 20 +22 +22 комфорт 1006.0 782.2
ЮЗ 5 16 км ясно +19.4 -0.6 26 +19 +19 1007.2 783.0
ЮЗ 6 16 км ясно +20.0 -2.8 21 +20 +20 1007.0 783.0
ЮЗ 6 16 км ясно +18.9 -3.9 21 +18 +18 1007.2 783.0 +18.9 +28.3
ЮЗ 7 16 км ясно +18.9 -4.4 20 +18 +18 1007.0 783.0
ЮЗ 7 16 км ясно +17.8 -5.0 21 +17 +17 1007.2 783.2
В 10
{13}
16 км ясно +16.7 +2.8 39 +15 +15 1008.2 783.7
В 7
{13}
16 км ясно +16.1 +4.4 46 +15 +15 784.3
СВ 7 16 км ясно +15.0 +7.2 60 +13 +13 1009.4 784.5
СВ 7
{11}
16 км ясно +13.9 +6.7 62 +12 +12 1010.2 785.0
СВ 9
{13}
16 км ясно +13.3 +7.2 67 +10 +10 1011.4 785.8 +13.3 +18.9
В 10
{14}
16 км ясно +13.3 +6.7 64 +10 +10 1012.6 786.6
В 10
{12}
16 км 2/2 600 м +15.0 +7.2 60 +13 +13 1014.2 787.6
В 9
{12}
16 км ясно +16.7 +8.3 58 +15 +16 1014.8 788.2
В 9
{14}
16 км ясно +18.3 +9.4 56 +18 +18 1015.4 788.2
В 10
{13}
16 км 2/2 900 м +20.0 +11.1 57 +21 +21 комфорт 1015.4 788.4
Местоположение метеостанции Clines Corners: широта 35.0000 долгота -105.6667 высота над уровнем моря 2160 м.
В архиве по умолчанию представлена погода в Клайнс Корнерс за последние 1-2 суток. Обновление информации о фактической погоде в базе происходит ежечасно! Архивные данные за месяц целиком и за предыдущие месяцы Вы можете получить, выбрав интересующий диапазон дат из раскрывающегося списка и нажав кнопку "Ввод!".
Внимание! Архив погоды МЕТАР в базе сайта по станциям, не включенным в климатический монитор, хранится не более 60 дней. Нет смысла пытаться выбрать более раннюю дату.
*Определитесь, кто Вы:
Внимание! Время в таблицах - местное (без учета летнего времени). Для получения всемирного времени необходимо вычесть поправку, которая равна -7 ч.
Смотрите также архив погоды в соседних городах и на ближайших метеорологических станциях:
Партнеры нашего сайта: Проектирование электроснабжения - заказать проект.      
Пояснения к столбцам:
  • Ветер - указаны скорость ветра в м/с - средняя за 10 мин, порывы в срок и между сроками (в фигурных скобках) и направление, откуда дует ветер: С - северный,
  • СВ - северо-восточный, В - восточный, ЮВ - юго-восточный, Ю - южный, ЮЗ - юго-западный, З - западный, СЗ - северо-западный.
  • Видимость - горизонтальная дальность видимости в метрах или километрах. При видимости от 1 до 10 км при отсутствии осадков обычно наблюдается дымка, при ухудшении видимости до 1 км и менее - туман. В сухую погоду видимость может ухудшаться дымом, пылью или мглою.
  • Явления - указаны атмосферные явления, наблюдавшиеся в срок или в последний час перед сроком; фигурными скобками обозначены явления, наблюдавшиеся между сроками (за 1-3 часа до срока); квадратными скобками обозначены град или гололедные отложения с указанием их диаметра в мм.
  • Облачность - указаны через наклонную черту общая и нижняя облачность в баллах и высота нижней границы облаков в метрах; квадратными скобками обозначены формы облаков: Ci - перистые, Cs - перисто-слоистые, Cc - перисто-кучевые, Ac - высококучевые, As - высокослоистые, Sc - слоисто-кучевые, Ns - слоисто-дождевые, Cu - кучевые, Cb - кучево-дождевые. Подробнее классификацию облаков см. в Атласе облаков (PDF).
  • T - Температура воздуха - температура, измеренная на высоте 2 м над землей.
  • Td - Температура точки росы - температура, при понижении до которой содержащийся в воздухе водяной пар достигнет насыщения.
  • f - Относительная влажность воздуха - влажноcть воздуха, измеренная на высоте 2 м над землей.
  • Te - Эффективная температура - температура, которую ощущает одетый по сезону человек в тени. Характеристика душности погоды. При расчете учитывается влияние влажности воздуха и скорости ветра на теплоощущения человека.
  • Tes - Эффективная температура на солнце - температура, которую ощущает человек, с поправкой на солнечный нагрев. Характеристика знойности погоды. Зависит от высоты солнца над горизонтом, облачности и скорости ветра. Ночью, в пасмурную погоду, а также при ветре 12 м/с и более поправка равна нулю.
  • P - Атмосферное давление - приведенное к уровню моря атмосферное давление.
  • Po - Атмосферное давление - измеренное на уровне метеостанции атмосферное давление.
  • Tmin - Минимальная температура - минимум температуры воздуха на высоте 2 м над землей.
  • Tmax - Максимальная температура - максимум температуры воздуха на высоте 2 м над землей.
  • R - Количество осадков - Количество выпавших осадков за период времени, мм. При наведении курсора мыши на число - период времени, за который выпало указанное количество осадков.
  • R24 - Количество осадков - Количество выпавших осадков за 24 часа, мм.
  • S - Снежный покров - Высота снежного покрова, см. При наведении курсора мыши на число - состояние снежного покрова и степень покрытия местности в баллах.